• Join FlightAware (Why Join?)
  • Login
  • US Flag 
11:43AM EDT


 

Airport Tracker/Info


-or-


 

Live Flight TrackerFlight Track Log ✈ AWI3551 ✈ 06-May-2013 ✈ KBUF - KPHL

Flight Track Log - Related Links

Times and Time Zones

All times are in EDT time to prevent confusion due to time zone crossing. See the AWI3551 flight status page for this flight to view local times or setup timezone preferences in your user account.

Time Position Orientation Groundspeed Altitude Reporting Facility
EDT Latitude Longitude Course Direction KTS MPH feet Rate Location/Type
05:30AM 42.9333 -78.7500 174° South 155 178 1,700  Level Buffalo TRACON
05:31AM 42.8833 -78.8167 224° Southwest 213 245 4,000 1,920 Climbing Buffalo TRACON
05:32AM 42.6240 -78.6848 172° South  Level FlightAware Approximate
05:32AM 42.8114 -78.8086 175° South 236 272 6,200  Level Cleveland Center
05:33AM 42.5305 -78.6662 173° South  Level FlightAware Approximate
05:33AM 42.7381 -78.7881 168° South 253 291 8,300  Level Cleveland Center
05:34AM 42.4367 -78.6506 173° South  Level FlightAware Approximate
05:34AM 42.6731 -78.7647 165° South 274 315 10,400  Level Cleveland Center
05:35AM 42.3424 -78.6465 174° South  Level FlightAware Approximate
05:35AM 42.5914 -78.7444 170° South 283 326 12,400  Level Cleveland Center
05:36AM 42.5097 -78.7072 161° South 302 348 14,700 2,220 Climbing Cleveland Center
05:37AM 42.4256 -78.6706 162° South 312 359 16,900 1,800 Climbing Cleveland Center
05:38AM 42.3394 -78.6281 160° South 320 368 18,400 1,500 Climbing Cleveland Center
05:39AM 42.2492 -78.5889 162° South 336 387 19,900 1,560 Climbing Cleveland Center
05:40AM 42.1525 -78.5442 161° South 350 403 21,600 1,440 Climbing Cleveland Center
05:41AM 42.0581 -78.5053 163° South 355 409 22,800 1,140 Climbing Cleveland Center
05:42AM 41.9633 -78.4608 161° South 360 414 24,000 1,080 Climbing Cleveland Center
05:43AM 41.8644 -78.4139 161° South 372 428 25,000 300 Climbing Cleveland Center
05:45AM 41.6339 -78.3122 162° South 414 476 25,000  Level New York Center
05:46AM 41.5306 -78.2675 162° South 409 471 25,000  Level New York Center
05:47AM 41.4272 -78.2200 161° South 403 464 25,000  Level New York Center
05:48AM 41.3342 -78.1764 161° South 397 457 25,000  Level New York Center
05:49AM 41.2347 -78.1325 162° South 391 450 25,000  Level New York Center
05:50AM 41.1314 -78.0881 162° South 386 444 25,000  Level New York Center
05:51AM 41.0300 -78.0414 161° South 386 444 25,000 -240 Level New York Center
05:52AM 40.9306 -77.9978 162° South 386 444 24,600 -600 Descending New York Center
05:53AM 40.8567 -77.9078 137° Southeast 364 419 23,800 -1,020 Descending New York Center
05:54AM 40.7919 -77.8050 130° Southeast 364 419 22,600 -1,200 Descending New York Center
05:55AM 40.7269 -77.7078 131° Southeast 359 413 21,400 -1,560 Descending New York Center
05:56AM 40.6617 -77.6083 131° Southeast 359 413 19,500 -1,620 Descending New York Center
05:57AM 40.5886 -77.5025 132° Southeast 366 421 18,200 -780 Descending New York Center
05:58AM 40.5253 -77.4061 131° Southeast 361 415 18,000 -120 Descending New York Center
05:59AM 40.4656 -77.3158 131° Southeast 350 403 18,000  Level New York Center
06:00AM 40.4072 -77.2039 124° Southeast 350 403 18,000  Level New York Center
06:01AM 40.3661 -77.0775 113° Southeast 364 419 18,000  Level New York Center
06:02AM 40.3308 -76.9572 111° Southeast 379 436 18,000 -180 Level New York Center
06:03AM 40.2858 -76.8169 113° Southeast 384 442 17,700 -720 Descending New York Center
06:04AM 40.2461 -76.6967 113° Southeast 378 435 16,600 -960 Descending New York Center
06:05AM 40.2036 -76.5842 116° Southeast 363 418 15,800 -1,320 Descending New York Center
06:06AM 40.1569 -76.5206 134° Southeast 324 373 14,000 -2,340 Descending New York Center
06:07AM 40.1269 -76.4067 109° East 289 333 11,200 -1,560 Descending New York Center
06:08AM 40.1214 -76.3006 94° East 307 353 10,900 -600 Descending New York Center
06:09AM 40.1103 -76.1828 97° East 307 353 10,100 -1,380 Descending New York Center
06:10AM 40.1047 -76.0739 94° East 283 326 8,300 -1,740 Descending New York Center
06:11AM 40.0789 -75.9986 114° Southeast 260 299 6,700 -1,200 Descending New York Center
06:12AM 40.0128 -75.9422 147° Southeast 248 285 5,900 -420 Descending New York Center
06:13AM 39.9583 -75.8975 148° Southeast 256 295 5,900  Level New York Center
06:14AM 39.9039 -75.8528 148° Southeast 232 267 6,000  Climbing New York Center
06:15AM 39.8700 -75.8206 144° Southeast 188 216 6,000  Level New York Center
06:16AM 39.8236 -75.7850 150° Southeast 177 204 6,000 -540 Level New York Center
06:17AM 39.7958 -75.7478 134° Southeast 171 197 5,000 -960 Descending New York Center
06:18AM 39.7819 -75.6792 105° East 169 194 4,100 -540 Descending New York Center
06:19AM 39.7908 -75.6178 79° East 180 207 4,000 -120 Descending New York Center
06:20AM 39.8000 -75.5833 71° East 196 226 4,000 -120 Level Philadelphia TRACON
06:21AM 39.8167 -75.5167 72° East 199 229 3,900 -600 Descending Philadelphia TRACON
06:22AM 39.8333 -75.4500 72° East 193 222 2,800 -1,020 Descending Philadelphia TRACON
06:23AM 39.8333 -75.3833 90° East 159 183 1,900 -900 Descending Philadelphia TRACON
06:24AM 39.8500 -75.3333 67° East 124 143 1,100 -780 Descending Philadelphia TRACON
06:25AM 39.8500 -75.3000 90° East 130 150 400 -720 Descending Philadelphia TRACON